Location: ?p Thanh B�nh
(16.5833°N, 107.5333°E)
Time: 05:21:25
(UTC+00:00)

Cosmos 2026 Rocket - Pass Details

Date: 29 October 2020
Orbit: 938 x 1002 km, 82.9° (Epoch: 29 November)

Event Time Altitude Azimuth Distance (km) Brightness Sun altitude
Rises 21:34:23 0° 191° (S) 3,691 7.0 -17.8°
Reaches altitude 10° 21:36:55 10° 194° (SSW) 2,750 6.3 -17.2°
Maximum altitude 21:43:10 64° 275° (W) 1,099 4.0 -15.7°
Drops below altitude 10° 21:49:28 10° 356° (N) 2,769 6.2 -14.2°
Sets 21:52:02 0° 359° (N) 3,718 6.9 -13.6°
